Regional Weather Roundup
Issued by NWS

Home | Current Version | Previous Version | Text Only | Print | Product List | Glossary Off
Versions: 1 2 3 4 5 6 7 8 9 10 11 12 13 14 15 16 17 18 19 20 21 22 23 24 25 26 27 28 29 30 31 32 33 34 35 36 37 38 39 40 41 42 43 44 45 46 47 48 49 50

000
ASUS43 KIND 221300
RWRIN

WEATHER ROUNDUP FOR INDIANA
NATIONAL WEATHER SERVICE INDIANAPOLIS IN
900 AM EDT TUE AUG 22 2017

NOTE: "FAIR" INDICATES FEW OR NO CLOUDS BELOW 12,000 FEET WITH NO
SIGNIFICANT WEATHER AND/OR OBSTRUCTIONS TO VISIBILITY.

* - STATION DOES NOT REPORT WEATHER SUCH AS PRECIPITATION OR FOG.

+ - STATION NOT QUALITY CONTROLLED BY THE NATIONAL WEATHER SERVICE.
    USE DATA WITH CAUTION...ESPECIALLY DEWPOINT AND RELATIVE
    HUMIDITY OBSERVATIONS.

INZ001>003-010>013-019-020-221400-
NORTHWEST INDIANA

CITY           SKY/WX    TMP DP  RH WIND       PRES   REMARKS
GARY /AIRPORT/ CLOUDY    72  68  88 SW7       29.89F
MICHIGAN CITY+ CLOUDY    70  70 100 SW10      29.90R
MONTICELLO +   DRIZZLE   67  66  95 S3        29.90F

$$

LMZ046-743>745-221400-
SOUTHERN LAKE MICHIGAN

STATION/POSITION TIME  TEMP    WIND        PRES    WAVE
                       AIR SEA DIR/SP/G            HT
                 (UTC) (F)     (DEG/KT/KT) (MB)    (FT)
BURNS HARBOR     1240   71     230/ 12/ 19 1012.9R
MICHIGAN CITY    1230   70     210/ 19/ 21   N/A
5NW MICH CITY    1250   72 74  240/ 17/ 23   N/A     4

$$

INZ004-005-014>016-021>024-221400-
NORTH CENTRAL INDIANA

CITY           SKY/WX    TMP DP  RH WIND       PRES   REMARKS
ELKHART        DRIZZLE   70  68  94 W9        29.88S
GOSHEN         LGT RAIN  70  66  87 SW12      29.89R
SOUTH BEND     CLOUDY    69  69 100 SW14      29.88S

$$

INZ006>009-017-018-025>027-221400-
NORTHEAST INDIANA

CITY           SKY/WX    TMP DP  RH WIND       PRES   REMARKS
FORT WAYNE     LGT RAIN  70  67  90 SW9       29.91F

$$

INZ028-029-035-036-043>045-051>053-221400-
WEST CENTRAL INDIANA

CITY           SKY/WX    TMP DP  RH WIND       PRES   REMARKS
LAFAYETTE      LGT RAIN  68  68 100 S6        29.93F
TERRE HAUTE    LGT RAIN  73  69  87 NW6       29.96S FOG

$$

INZ030>032-037>040-046>048-054>057-064-065-221400-
CENTRAL INDIANA

CITY           SKY/WX    TMP DP  RH WIND       PRES   REMARKS
ANDERSON       MOSUNNY   72  68  88 MISG      29.97
COLUMBUS       SUNNY     77  70  78 S10       29.95F
GREENWOOD *+   CLOUDY   N/A N/A N/A W7        29.95S
INDIANAPOLIS   TSTM      70  68  93 NW8       29.96S
-EAGLE CREEK   LGT RAIN  71  67  87 NW6       29.97R
KOKOMO +       LGT RAIN  69  68  96 W7        29.94S
MT COMFORT *+  CLOUDY    73  68  83 N8G18     29.95R
SHELBYVILLE    MOSUNNY   75  70  84 S5        29.94S

$$

INZ033-034-041-042-049-050-058-059-221400-
EAST CENTRAL INDIANA

CITY           SKY/WX    TMP DP  RH WIND       PRES   REMARKS
MUNCIE         PTSUNNY   72  67  84 NW7       29.95S
RICHMOND +     MOSUNNY   73  72  94 SW14      29.97S FOG

$$

INZ060-061-067>069-081>083-085>088-221400-
SOUTHWEST INDIANA

CITY           SKY/WX    TMP DP  RH WIND       PRES   REMARKS
EVANSVILLE     CLOUDY    78  74  87 SW10      29.98S
HUNTINGBURG +  SUNNY     78  74  87 SW12      29.99S

$$

INZ062-063-066-070>080-084-089>092-221400-
SOUTH CENTRAL AND SOUTHEAST INDIANA

CITY           SKY/WX    TMP DP  RH WIND       PRES   REMARKS
BLOOMINGTON    CLOUDY    77  71  82 W13G21    29.97R
MADISON *+     SUNNY     77  70  78 SW8       30.01S
SEYMOUR +      MOSUNNY   79  72  78 SW7       29.96F

$$





USA.gov is the U.S. government's official web portal to all federal, state and local government web resources and services.